Location: AstroGeek's Observatory
(41.9520°N, 70.9880°W)
Time: 19:47:32
(UTC-04:00)

ISS - All Passes

Search period start: 24 June 2016 00:00
Search period end: 04 July 2016 00:00
Orbit: 402 x 404 km, 51.6° (Epoch: 24 June)

Date Brightness Start Highest point End Pass type
(mag) Time Alt. Az. Time Alt. Az. Time Alt. Az.
24 Jun - 10:30:10 10° SW 10:33:21 55° SE 10:36:34 10° ENE daylight
24 Jun - 12:07:11 10° W 12:09:59 26° NNW 12:12:48 10° NE daylight
24 Jun - 13:45:16 10° NW 13:47:15 15° N 13:49:15 10° NE daylight
24 Jun - 15:21:50 10° NW 15:24:34 23° NNE 15:27:17 10° ENE daylight
24 Jun - 16:58:01 10° WNW 17:01:16 69° SW 17:04:30 10° SE daylight
25 Jun - 09:37:53 10° SSW 09:40:44 28° SE 09:43:35 10° ENE daylight
25 Jun - 11:14:01 10° W 11:17:06 38° NNW 11:20:11 10° NE daylight
25 Jun - 12:52:07 10° NW 12:54:14 16° N 12:56:21 10° NNE daylight
25 Jun - 14:29:12 10° NNW 14:31:36 18° NNE 14:33:59 10° ENE daylight
25 Jun - 16:05:16 10° NW 16:08:32 63° NNE 16:11:46 10° ESE daylight
25 Jun - 17:42:38 10° W 17:44:38 15° SW 17:46:38 10° S daylight
26 Jun - 08:46:14 10° SSE 08:48:11 15° SE 08:50:09 10° E daylight
26 Jun - 10:21:03 10° WSW 10:24:17 64° NNW 10:27:32 10° NE daylight
26 Jun - 11:58:49 10° WNW 12:01:13 18° NNW 12:03:36 10° NNE daylight
26 Jun - 13:36:28 10° NNW 13:38:35 16° N 13:40:42 10° NE daylight
26 Jun - 15:12:37 10° NW 15:15:43 37° NNE 15:18:47 10° E daylight
26 Jun - 16:49:12 10° WNW 16:52:05 28° SW 16:54:56 10° SSE daylight
27 Jun - 09:28:18 10° SW 09:31:32 68° SE 09:34:48 10° ENE daylight
27 Jun - 11:05:31 10° WNW 11:08:14 23° NNW 11:10:58 10° NE daylight
27 Jun - 12:43:33 10° NW 12:45:32 15° N 12:47:31 10° NE daylight
27 Jun - 14:20:00 10° NW 14:22:49 25° NNE 14:25:36 10° E daylight
27 Jun - 15:56:13 10° WNW 15:59:26 56° SW 16:02:38 10° SE daylight
28 Jun - 08:35:52 10° SSW 08:38:52 34° SE 08:41:52 10° ENE daylight
28 Jun - 10:12:18 10° W 10:15:18 33° NNW 10:18:19 10° NE daylight
28 Jun - 11:50:25 10° NW 11:52:28 15° N 11:54:32 10° NE daylight
28 Jun - 13:27:21 10° NW 13:29:50 20° NNE 13:32:19 10° ENE daylight
28 Jun - 15:03:25 10° NW 15:06:42 76° NNE 15:09:57 10° ESE daylight
28 Jun - 16:41:13 10° WSW 16:42:43 13° SW 16:44:13 10° SSW daylight
29 Jun - 07:43:57 10° S 07:46:16 18° SE 07:48:35 10° E daylight
29 Jun - 09:19:14 10° WSW 09:22:26 54° NNW 09:25:39 10° NE daylight
29 Jun - 10:57:07 10° WNW 10:59:25 17° NNW 11:01:43 10° NNE daylight
29 Jun - 12:34:37 10° NNW 12:36:48 16° N 12:38:59 10° NE daylight
29 Jun - 14:10:43 10° NW 14:13:53 43° NNE 14:17:00 10° ESE daylight
29 Jun - 15:47:28 10° W 15:50:10 24° SW 15:52:50 10° S daylight
30 Jun - 08:26:23 10° SW 08:29:38 82° SE 08:32:54 10° ENE daylight
30 Jun - 10:03:47 10° WNW 10:06:24 22° NNW 10:09:01 10° NE daylight
30 Jun - 11:41:43 10° NW 11:43:43 15° N 11:45:44 10° NE daylight
30 Jun - 13:18:03 10° NW 13:20:57 28° NNE 13:23:51 10° E daylight
30 Jun - 14:54:22 10° WNW 14:57:30 45° SW 15:00:39 10° SSE daylight
01 Jul - 07:33:49 10° SSW 07:36:54 41° SE 07:40:01 10° ENE daylight
01 Jul - 09:10:30 10° W 09:13:25 29° NNW 09:16:22 10° NE daylight
01 Jul - 10:48:37 10° NW 10:50:38 15° N 10:52:39 10° NE daylight
01 Jul - 12:25:24 10° NW 12:27:59 21° NNE 12:30:33 10° ENE daylight
01 Jul - 14:01:29 10° NW 14:04:46 89° S 14:08:02 10° SE daylight
01 Jul - 15:40:12 10° WSW 15:40:43 10° SW 15:41:13 10° SW daylight
02 Jul - 06:41:41 10° S 06:44:15 22° SE 06:46:50 10° E daylight
02 Jul - 08:17:21 10° WSW 08:20:30 46° NNW 08:23:40 10° NE daylight
02 Jul - 09:55:20 10° NW 09:57:33 17° N 09:59:46 10° NNE daylight
02 Jul - 11:32:39 10° NNW 11:34:55 17° N 11:37:11 10° NE daylight
02 Jul - 13:08:44 10° NW 13:11:56 50° NNE 13:15:07 10° ESE daylight
02 Jul - 14:45:42 10° W 14:48:09 20° SW 14:50:35 10° S daylight
03 Jul - 05:50:30 10° SSE 05:51:40 11° SE 05:52:50 10° ESE daylight
03 Jul - 07:24:23 10° WSW 07:27:39 83° NNW 07:30:56 10° NE daylight
03 Jul - 09:01:57 10° WNW 09:04:29 20° NNW 09:07:00 10° NE daylight
03 Jul - 10:39:48 10° NW 10:41:50 15° N 10:43:52 10° NE daylight
03 Jul - 12:16:02 10° NW 12:19:01 31° NNE 12:21:59 10° E daylight
03 Jul - 13:52:26 10° WNW 13:55:30 37° SW 13:58:32 10° SSE daylight
